Location: Newark
(52.0178°N, 4.7453°W)
Time: 10:32:50
(UTC+00:00)

Envisat - Pass Details

Date: 26 March 2019
Orbit: 764 x 766 km, 98.2° (Epoch: 24 April)

Event Time Altitude Azimuth Distance (km) Brightness Sun altitude
Rises 19:30:50 0° 189° (S) 3,223 6.2 -8.2°
Reaches altitude 10° 19:33:19 10° 199° (SSW) 2,301 5.5 -8.6°
Maximum altitude 19:37:57 35° 265° (W) 1,219 4.8 -9.3°
Drops below altitude 10° 19:42:37 10° 331° (NNW) 2,316 6.2 -10.0°
Sets 19:45:08 0° 340° (NNW) 3,247 6.8 -10.3°
